Location: Chervonnoye
(48.6000°N, 34.4000°E)
Time: 21:37:38
(UTC+00:00)

Okean-O - Visible Passes

Search period start: 16 April 2021 00:00
Search period end: 26 April 2021 00:00
Orbit: 639 x 640 km, 98.2° (Epoch: 16 April)

Date Brightness Start Highest point End Pass type
(mag) Time Alt. Az. Time Alt. Az. Time Alt. Az.
16 Apr 5.5 17:49:53 10° SW 17:52:33 16° W 17:55:13 10° NW visible
19 Apr 4.8 17:21:58 10° SSW 17:25:45 27° W 17:29:34 10° NW visible
20 Apr 5.4 17:46:24 10° SW 17:49:17 17° W 17:52:11 10° NW visible
23 Apr 4.7 17:18:37 10° SSW 17:22:30 29° W 17:26:24 10° NW visible
24 Apr 5.4 17:42:57 10° SW 17:46:02 18° W 17:49:07 10° NW visible
25 Apr 5.8 18:08:28 10° WSW 18:09:37 11° W 18:10:47 10° WNW visible
